TimeCDT,TemperatureF,Dew PointF,Humidity,Sea Level PressureIn,VisibilityMPH,Wind Direction,Wind SpeedMPH,Gust SpeedMPH,PrecipitationIn,Events,Conditions,WindDirDegrees,DateUTC
12:53 AM,68.0,64.0,87,30.11,10.0,South,5.8,-,N/A,,Clear,170,2013-08-11 05:53:00
1:53 AM,68.0,64.0,87,30.12,10.0,Calm,Calm,-,N/A,,Partly Cloudy,0,2013-08-11 06:53:00
2:53 AM,68.0,64.0,87,30.12,10.0,SSE,6.9,-,N/A,,Partly Cloudy,150,2013-08-11 07:53:00
3:53 AM,68.0,64.0,87,30.10,10.0,SSE,5.8,-,N/A,,Clear,150,2013-08-11 08:53:00
4:53 AM,68.0,64.0,87,30.07,10.0,SSE,5.8,-,N/A,,Clear,150,2013-08-11 09:53:00
5:53 AM,64.9,63.0,93,30.08,8.0,SSE,4.6,-,N/A,,Clear,160,2013-08-11 10:53:00
6:53 AM,64.9,63.0,93,30.09,5.0,Calm,Calm,-,N/A,,Clear,0,2013-08-11 11:53:00
7:53 AM,69.1,64.9,87,30.09,8.0,Calm,Calm,-,N/A,,Clear,0,2013-08-11 12:53:00
8:53 AM,73.0,66.9,81,30.09,10.0,SSE,6.9,-,N/A,,Clear,160,2013-08-11 13:53:00
9:53 AM,77.0,68.0,74,30.09,10.0,South,10.4,-,N/A,,Clear,170,2013-08-11 14:53:00
10:53 AM,79.0,66.9,66,30.09,10.0,South,9.2,-,N/A,,Scattered Clouds,170,2013-08-11 15:53:00
11:53 AM,82.0,66.9,60,30.09,10.0,South,9.2,-,N/A,,Partly Cloudy,170,2013-08-11 16:53:00
12:53 PM,84.0,66.9,56,30.08,10.0,SSW,10.4,-,N/A,,Scattered Clouds,200,2013-08-11 17:53:00
1:53 PM,84.9,66.9,55,30.05,10.0,SSE,11.5,-,N/A,,Partly Cloudy,160,2013-08-11 18:53:00
2:53 PM,84.0,66.0,55,30.04,10.0,South,6.9,-,N/A,,Clear,170,2013-08-11 19:53:00
3:53 PM,84.0,66.9,56,30.03,10.0,SSE,9.2,-,N/A,,Partly Cloudy,160,2013-08-11 20:53:00
4:53 PM,84.9,69.1,59,30.01,10.0,South,6.9,-,N/A,,Clear,170,2013-08-11 21:53:00
5:53 PM,84.0,69.1,61,30.00,10.0,South,8.1,-,N/A,,Clear,180,2013-08-11 22:53:00
6:53 PM,82.0,69.1,65,29.99,10.0,South,6.9,-,N/A,,Clear,190,2013-08-11 23:53:00
7:53 PM,79.0,70.0,74,29.99,10.0,South,5.8,-,N/A,,Clear,190,2013-08-12 00:53:00
8:53 PM,78.1,69.1,74,29.99,10.0,SE,5.8,-,N/A,,Clear,140,2013-08-12 01:53:00
9:53 PM,77.0,69.1,76,29.98,10.0,SE,8.1,-,N/A,,Clear,130,2013-08-12 02:53:00
10:53 PM,77.0,69.1,76,29.99,10.0,ESE,6.9,-,N/A,,Clear,120,2013-08-12 03:53:00
11:53 PM,75.9,69.1,79,30.00,10.0,SE,4.6,-,N/A,,Clear,130,2013-08-12 04:53:00